Tracking 18876 objects as of 15-Dec-2017
HD Live streaming from Space Station
objects crossing your sky now

DEMETER

Track DEMETER now!
10-day predictions
DEMETER is classified as:


NORAD ID: 28368
Int'l Code: 2004-025C
Perigee: 652.8 km
Apogee: 656.2 km
Inclination: 97.7 °
Period: 97.7 minutes
Semi major axis: 7025 km
RCS: 0.9257 m2 (medium)
Launch date: June 29, 2004
Source: France (FR)
Launch site: TYURATAM MISSILE AND SPACE COMPLEX (TTMTR)

Study of ionosperic perturbations in relation with seismic activity; global study of the Earth electromagnetic environment.
aabbcc
Your satellite tracking list
Your tracking list is empty




NASA's NSSDC Master Catalog

Two Line Element Set (TLE):
1 28368U 04025C   17348.73886584  .00000134  00000-0  27434-4 0  9992
2 28368  97.7274 339.3761 0002407  58.8965 301.2474 14.74308773722221
Source of the keplerian elements: AFSPC